| time (UTC) | temp F | wind direction | speed knots | gust knots | rain 1hr in | rain 24hr in | rain mn in | humidity % | barometer mb |
| 20260510072708 | 46 | 326 | 0.0 | 0.0 | 0.00 | 0.06 | 0.06 | 99 | 1007.0 |
| 20260510072205 | 46 | 326 | 0.0 | 0.0 | 0.00 | 0.06 | 0.06 | 99 | 1006.9 |
| 20260510071701 | 46 | 326 | 0.0 | 0.0 | 0.00 | 0.06 | 0.06 | 99 | 1006.7 |
| 20260510071158 | 47 | 326 | 0.0 | 0.0 | 0.00 | 0.06 | 0.06 | 99 | 1006.8 |
| 20260510070656 | 47 | 326 | 0.0 | 0.0 | 0.00 | 0.06 | 0.06 | 99 | 1006.7 |
| 20260510070153 | 47 | 326 | 0.0 | 0.0 | 0.00 | 0.06 | 0.06 | 99 | 1006.8 |
| 20260510065648 | 47 | 326 | 0.0 | 0.0 | 0.00 | 0.06 | 0.06 | 99 | 1006.8 |
| 20260510065145 | 47 | 326 | 0.0 | 0.0 | 0.00 | 0.06 | 0.06 | 99 | 1006.9 |
| 20260510064641 | 48 | 326 | 0.0 | 0.9 | 0.00 | 0.06 | 0.06 | 99 | 1006.9 |
| 20260510064138 | 48 | 326 | 0.0 | 0.0 | 0.00 | 0.06 | 0.06 | 99 | 1006.7 |
| 20260510063636 | 48 | 326 | 0.0 | 0.0 | 0.00 | 0.06 | 0.06 | 99 | 1007.0 |
| 20260510063132 | 48 | 326 | 0.0 | 0.0 | 0.00 | 0.06 | 0.06 | 99 | 1007.0 |
| 20260510062628 | 48 | 326 | 0.0 | 0.0 | 0.00 | 0.06 | 0.06 | 99 | 1007.1 |
| 20260510062124 | 48 | 326 | 0.0 | 0.0 | 0.00 | 0.06 | 0.06 | 99 | 1007.2 |
| 20260510061620 | 48 | 326 | 0.0 | 0.0 | 0.00 | 0.06 | 0.06 | 99 | 1007.1 |
| 20260510061118 | 48 | 326 | 0.0 | 0.9 | 0.00 | 0.06 | 0.06 | 99 | 1007.0 |
| 20260510060613 | 48 | 326 | 0.0 | 0.0 | 0.00 | 0.06 | 0.06 | 99 | 1007.2 |
| 20260510060110 | 48 | 326 | 0.9 | 0.9 | 0.00 | 0.06 | 0.06 | 99 | 1007.6 |
| 20260510055606 | 48 | 326 | 0.0 | 0.0 | 0.00 | 0.06 | 0.06 | 99 | 1007.6 |
| 20260510055104 | 48 | 326 | 0.0 | 0.0 | 0.00 | 0.06 | 0.06 | 99 | 1007.5 |
| 20260510054600 | 49 | 326 | 0.0 | 0.9 | 0.00 | 0.06 | 0.06 | 99 | 1007.9 |
| 20260510054055 | 49 | 326 | 0.0 | 0.9 | 0.00 | 0.06 | 0.06 | 99 | 1007.8 |
| 20260510053554 | 49 | 326 | 0.0 | 0.0 | 0.07 | 0.06 | 0.06 | 99 | 1007.8 |
| 20260510053052 | 49 | 326 | 0.0 | 0.0 | 0.12 | 0.06 | 0.06 | 99 | 1008.0 |
| 20260510052548 | 49 | 326 | 0.0 | 0.0 | 0.12 | 0.05 | 0.05 | 99 | 1008.0 |
| 20260510052044 | 49 | 326 | 0.0 | 0.0 | 0.12 | 0.04 | 0.04 | 99 | 1008.3 |
| 20260510051540 | 50 | 326 | 0.0 | 0.0 | 0.12 | 0.03 | 0.03 | 99 | 1008.0 |
| 20260510051036 | 50 | 326 | 0.0 | 0.0 | 0.12 | 0.02 | 0.02 | 99 | 1008.5 |
| 20260510050534 | 50 | 326 | 0.0 | 0.0 | 0.05 | 0.01 | 0.01 | 99 | 1008.5 |
| 20260510050031 | 50 | 326 | 0.0 | 0.0 | 0.00 | 0.00 | 0.00 | 98 | 1008.6 |
| 20260510045528 | 50 | 326 | 0.9 | 0.9 | 0.00 | 0.00 | 0.00 | 99 | 1008.5 |
| 20260510045024 | 50 | 326 | 0.0 | 0.9 | 0.00 | 0.00 | 0.00 | 99 | 1008.5 |
| 20260510044521 | 50 | 326 | 1.7 | 1.7 | 0.00 | 0.00 | 0.00 | 99 | 1008.5 |
| 20260510044019 | 50 | 351 | 0.0 | 0.9 | 0.00 | 0.00 | 0.00 | 99 | 1008.3 |
| 20260510043514 | 50 | 84 | 1.7 | 1.7 | 0.00 | 0.00 | 0.00 | 99 | 1008.5 |
| 20260510043010 | 50 | 202 | 0.0 | 0.9 | 0.00 | 0.00 | 0.00 | 99 | 1008.4 |
| 20260510042504 | 50 | 226 | 0.9 | 1.7 | 0.00 | 0.00 | 0.00 | 99 | 1008.0 |
| 20260510041959 | 49 | 248 | 0.9 | 1.7 | 0.00 | 0.00 | 0.00 | 99 | 1008.0 |
| 20260510041456 | 49 | 226 | 1.7 | 1.7 | 0.00 | 0.00 | 0.00 | 99 | 1007.9 |
| 20260510040954 | 49 | 146 | 0.9 | 0.9 | 0.00 | 0.00 | 0.00 | 99 | 1007.4 |
| 20260510040450 | 49 | 274 | 0.9 | 1.7 | 0.00 | 0.00 | 0.00 | 99 | 1007.2 |
| 20260510035946 | 49 | 143 | 0.0 | 0.0 | 0.00 | 0.46 | 0.46 | 99 | 1006.8 |
| 20260510035443 | 49 | 98 | 0.0 | 0.0 | 0.00 | 0.46 | 0.46 | 99 | 1007.1 |
| 20260510034942 | 49 | 97 | 0.0 | 0.0 | 0.00 | 0.46 | 0.46 | 99 | 1007.1 |
| 20260510034441 | 49 | 124 | 0.0 | 0.0 | 0.00 | 0.46 | 0.46 | 99 | 1007.0 |
| 20260510033937 | 49 | 123 | 0.0 | 0.0 | 0.00 | 0.46 | 0.46 | 99 | 1006.9 |
| 20260510033433 | 49 | 123 | 0.0 | 0.0 | 0.00 | 0.46 | 0.46 | 99 | 1006.9 |
| 20260510032930 | 48 | 124 | 0.0 | 0.0 | 0.00 | 0.46 | 0.46 | 99 | 1007.0 |
| 20260510032427 | 48 | 123 | 0.9 | 0.9 | 0.00 | 0.46 | 0.46 | 99 | 1007.1 |
| 20260510031922 | 48 | 124 | 0.0 | 0.0 | 0.00 | 0.46 | 0.46 | 99 | 1007.0 |
| 20260510031418 | 48 | 124 | 0.0 | 0.0 | 0.00 | 0.46 | 0.46 | 99 | 1007.0 |
| 20260510030914 | 47 | 124 | 0.9 | 0.9 | 0.00 | 0.46 | 0.46 | 99 | 1007.1 |
| 20260510030410 | 47 | 86 | 0.9 | 0.9 | 0.00 | 0.46 | 0.46 | 99 | 1007.1 |
| 20260510025908 | 48 | 86 | 0.0 | 0.0 | 0.00 | 0.46 | 0.46 | 99 | 1007.0 |
| 20260510025405 | 48 | 86 | 0.0 | 0.0 | 0.00 | 0.46 | 0.46 | 99 | 1006.9 |
| 20260510024902 | 48 | 86 | 0.0 | 0.0 | 0.00 | 0.46 | 0.46 | 99 | 1006.8 |
| 20260510024358 | 48 | 198 | 0.0 | 0.0 | 0.00 | 0.46 | 0.46 | 99 | 1006.5 |
| 20260510023854 | 48 | 198 | 0.9 | 0.9 | 0.00 | 0.46 | 0.46 | 99 | 1006.5 |
| 20260510023351 | 48 | 198 | 0.0 | 0.9 | 0.00 | 0.46 | 0.46 | 99 | 1006.7 |
| 20260510022848 | 47 | 124 | 0.0 | 0.0 | 0.00 | 0.46 | 0.46 | 99 | 1006.6 |
| 20260510022347 | 47 | 124 | 0.0 | 0.0 | 0.00 | 0.46 | 0.46 | 99 | 1006.6 |
| 20260510021846 | 47 | 124 | 0.0 | 0.0 | 0.00 | 0.46 | 0.46 | 99 | 1006.6 |
| 20260510021345 | 47 | 124 | 0.0 | 0.0 | 0.00 | 0.46 | 0.46 | 99 | 1006.8 |
| 20260510020840 | 48 | 124 | 0.0 | 0.0 | 0.00 | 0.46 | 0.46 | 99 | 1006.7 |
| 20260510020335 | 48 | 124 | 0.0 | 0.0 | 0.00 | 0.46 | 0.46 | 99 | 1006.5 |
| 20260510015831 | 49 | 124 | 0.0 | 0.0 | 0.00 | 0.46 | 0.46 | 99 | 1006.6 |
| 20260510015327 | 49 | 124 | 0.9 | 1.7 | 0.00 | 0.46 | 0.46 | 99 | 1006.5 |
| 20260510014822 | 49 | 125 | 0.0 | 0.9 | 0.00 | 0.46 | 0.46 | 99 | 1006.4 |
| 20260510014320 | 49 | 121 | 0.0 | 0.9 | 0.00 | 0.46 | 0.46 | 99 | 1006.7 |
| 20260510013816 | 49 | 328 | 0.0 | 0.0 | 0.00 | 0.46 | 0.46 | 99 | 1006.6 |
| 20260510013311 | 48 | 125 | 0.9 | 0.9 | 0.00 | 0.46 | 0.46 | 99 | 1006.5 |
| 20260510012806 | 47 | 95 | 0.0 | 0.9 | 0.00 | 0.46 | 0.46 | 99 | 1006.6 |
| 20260510012301 | 46 | 111 | 0.0 | 0.0 | 0.00 | 0.46 | 0.46 | 99 | 1006.5 |
| 20260510011801 | 46 | 124 | 0.0 | 0.0 | 0.00 | 0.46 | 0.46 | 99 | 1006.1 |
| 20260510011257 | 46 | 125 | 0.0 | 0.0 | 0.00 | 0.46 | 0.46 | 99 | 1006.3 |
| 20260510010754 | 46 | 125 | 0.0 | 0.0 | 0.00 | 0.46 | 0.46 | 99 | 1006.3 |
| 20260510010250 | 46 | 125 | 0.0 | 0.0 | 0.00 | 0.46 | 0.46 | 99 | 1006.4 |
| 20260510005747 | 47 | 125 | 0.0 | 0.0 | 0.00 | 0.46 | 0.46 | 99 | 1006.3 |
| 20260510005243 | 47 | 125 | 0.0 | 0.0 | 0.00 | 0.46 | 0.46 | 99 | 1006.0 |
| 20260510004741 | 48 | 125 | 0.0 | 0.0 | 0.00 | 0.46 | 0.46 | 99 | 1006.0 |
| 20260510004239 | 49 | 125 | 0.0 | 0.0 | 0.00 | 0.46 | 0.46 | 99 | 1005.8 |
| 20260510003736 | 49 | 125 | 0.0 | 0.0 | 0.00 | 0.46 | 0.46 | 99 | 1006.2 |
| 20260510003232 | 49 | 125 | 0.0 | 0.0 | 0.00 | 0.46 | 0.46 | 99 | 1006.4 |
| 20260510002731 | 49 | 125 | 0.0 | 0.0 | 0.00 | 0.46 | 0.46 | 99 | 1006.0 |
| 20260510002229 | 49 | 125 | 0.0 | 0.0 | 0.00 | 0.46 | 0.46 | 99 | 1005.9 |
| 20260510001725 | 49 | 125 | 0.0 | 0.0 | 0.00 | 0.46 | 0.46 | 99 | 1006.1 |
| 20260510001224 | 50 | 125 | 0.0 | 0.0 | 0.00 | 0.46 | 0.46 | 99 | 1006.1 |
| 20260510000720 | 50 | 125 | 0.0 | 0.0 | 0.00 | 0.46 | 0.46 | 99 | 1005.8 |
| 20260510000218 | 50 | 125 | 0.9 | 0.9 | 0.00 | 0.46 | 0.46 | 99 | 1005.6 |
| 20260509235714 | 50 | 125 | 0.0 | 0.0 | 0.00 | 0.46 | 0.46 | 99 | 1005.6 |
| 20260509235210 | 51 | 125 | 0.0 | 0.0 | 0.00 | 0.46 | 0.46 | 99 | 1005.7 |
| 20260509234706 | 51 | 125 | 0.0 | 0.0 | 0.00 | 0.46 | 0.46 | 99 | 1005.7 |
| 20260509234204 | 51 | 125 | 0.0 | 0.0 | 0.00 | 0.46 | 0.46 | 99 | 1005.2 |
| 20260509233702 | 52 | 125 | 0.0 | 0.0 | 0.00 | 0.46 | 0.46 | 99 | 1005.2 |
| 20260509233159 | 52 | 125 | 0.0 | 0.0 | 0.00 | 0.46 | 0.46 | 99 | 1005.2 |
| 20260509232655 | 52 | 125 | 0.0 | 0.0 | 0.00 | 0.46 | 0.46 | 99 | 1004.9 |
| 20260509232152 | 52 | 125 | 0.0 | 0.0 | 0.00 | 0.46 | 0.46 | 99 | 1005.0 |
| 20260509231649 | 52 | 125 | 0.0 | 0.0 | 0.00 | 0.46 | 0.46 | 99 | 1005.3 |
| 20260509231146 | 52 | 125 | 0.0 | 0.9 | 0.00 | 0.46 | 0.46 | 99 | 1005.0 |
| 20260509230643 | 52 | 60 | 0.0 | 0.0 | 0.00 | 0.46 | 0.46 | 99 | 1005.4 |
| 20260509230140 | 52 | 57 | 0.0 | 0.0 | 0.00 | 0.46 | 0.46 | 99 | 1005.2 |
| 20260509225635 | 52 | 243 | 0.0 | 0.9 | 0.00 | 0.46 | 0.46 | 99 | 1005.1 |
| 20260509225131 | 52 | 234 | 0.0 | 0.0 | 0.00 | 0.46 | 0.46 | 99 | 1005.2 |
| 20260509224627 | 52 | 345 | 0.9 | 0.9 | 0.00 | 0.46 | 0.46 | 99 | 1005.2 |
| 20260509224124 | 53 | 355 | 0.0 | 0.0 | 0.00 | 0.46 | 0.46 | 99 | 1005.1 |
| 20260509223621 | 53 | 355 | 0.0 | 0.0 | 0.00 | 0.46 | 0.46 | 99 | 1005.2 |
| 20260509223118 | 53 | 355 | 0.0 | 0.0 | 0.00 | 0.46 | 0.46 | 99 | 1005.1 |
| 20260509222614 | 53 | 173 | 0.0 | 0.0 | 0.00 | 0.46 | 0.46 | 99 | 1004.9 |
| 20260509222110 | 53 | 173 | 0.0 | 0.0 | 0.00 | 0.46 | 0.46 | 99 | 1005.0 |
| 20260509221606 | 52 | 189 | 0.9 | 0.9 | 0.00 | 0.46 | 0.46 | 99 | 1005.1 |
| 20260509221102 | 52 | 187 | 0.0 | 0.9 | 0.00 | 0.46 | 0.46 | 99 | 1004.9 |
| 20260509220558 | 52 | 285 | 2.6 | 3.5 | 0.00 | 0.46 | 0.46 | 99 | 1004.9 |
| 20260509220055 | 52 | 248 | 2.6 | 3.5 | 0.00 | 0.46 | 0.46 | 99 | 1005.1 |
| 20260509215550 | 52 | 208 | 0.9 | 0.9 | 0.00 | 0.46 | 0.46 | 99 | 1005.3 |
| 20260509215048 | 52 | 213 | 0.0 | 1.7 | 0.00 | 0.46 | 0.46 | 99 | 1005.1 |
| 20260509214545 | 52 | 270 | 1.7 | 2.6 | 0.00 | 0.46 | 0.46 | 99 | 1005.4 |
| 20260509214042 | 52 | 300 | 1.7 | 2.6 | 0.00 | 0.46 | 0.46 | 99 | 1005.1 |
| 20260509213537 | 52 | 187 | 0.9 | 0.9 | 0.00 | 0.46 | 0.46 | 99 | 1005.3 |
| 20260509213035 | 51 | 177 | 0.0 | 0.0 | 0.00 | 0.46 | 0.46 | 99 | 1005.6 |
| 20260509212531 | 51 | 186 | 0.0 | 0.9 | 0.00 | 0.46 | 0.46 | 99 | 1005.3 |
| 20260509212029 | 51 | 259 | 0.9 | 1.7 | 0.00 | 0.46 | 0.46 | 99 | 1005.6 |
| 20260509211524 | 51 | 240 | 0.0 | 0.9 | 0.00 | 0.46 | 0.46 | 99 | 1005.6 |
| 20260509211021 | 51 | 153 | 1.7 | 1.7 | 0.00 | 0.46 | 0.46 | 99 | 1005.6 |
| 20260509210518 | 51 | 160 | 0.0 | 0.0 | 0.00 | 0.46 | 0.46 | 99 | 1005.8 |
| 20260509210015 | 51 | 226 | 0.9 | 1.7 | 0.00 | 0.46 | 0.46 | 99 | 1005.8 |
| 20260509205509 | 51 | 181 | 0.9 | 0.9 | 0.00 | 0.46 | 0.46 | 99 | 1005.7 |
| 20260509205005 | 51 | 180 | 0.9 | 0.9 | 0.00 | 0.46 | 0.46 | 99 | 1005.8 |
| 20260509204501 | 51 | 244 | 2.6 | 2.6 | 0.00 | 0.46 | 0.46 | 99 | 1005.8 |
| 20260509203957 | 51 | 153 | 0.9 | 1.7 | 0.00 | 0.46 | 0.46 | 99 | 1006.0 |
| 20260509203453 | 51 | 239 | 0.9 | 0.9 | 0.00 | 0.46 | 0.46 | 99 | 1006.0 |
| 20260509202951 | 51 | 152 | 0.0 | 0.0 | 0.00 | 0.46 | 0.46 | 99 | 1006.1 |
| 20260509202447 | 51 | 190 | 0.0 | 0.0 | 0.00 | 0.46 | 0.46 | 99 | 1006.2 |
| 20260509201942 | 51 | 202 | 1.7 | 1.7 | 0.00 | 0.46 | 0.46 | 99 | 1006.0 |
| 20260509201437 | 51 | 109 | 0.9 | 3.5 | 0.07 | 0.46 | 0.46 | 99 | 1005.9 |
| 20260509200934 | 51 | 229 | 1.7 | 1.7 | 0.07 | 0.46 | 0.46 | 99 | 1006.2 |
| 20260509200434 | 51 | 203 | 0.0 | 0.9 | 0.05 | 0.45 | 0.45 | 99 | 1006.1 |
| 20260509195931 | 51 | 218 | 0.9 | 0.9 | 0.05 | 0.45 | 0.45 | 99 | 1006.1 |
| 20260509195427 | 51 | 159 | 0.9 | 1.7 | 0.07 | 0.44 | 0.44 | 99 | 1006.3 |
| 20260509194926 | 51 | 210 | 0.9 | 1.7 | 0.12 | 0.44 | 0.44 | 99 | 1006.4 |
| 20260509194422 | 51 | 138 | 0.9 | 1.7 | 0.05 | 0.43 | 0.43 | 99 | 1006.3 |
| 20260509193920 | 51 | 137 | 0.9 | 1.7 | 0.00 | 0.42 | 0.42 | 99 | 1006.4 |
| 20260509193419 | 50 | 181 | 0.0 | 0.9 | 0.07 | 0.42 | 0.42 | 99 | 1006.4 |
| 20260509192916 | 50 | 216 | 0.9 | 1.7 | 0.07 | 0.42 | 0.42 | 99 | 1006.5 |
| 20260509192412 | 51 | 157 | 0.9 | 0.9 | 0.00 | 0.41 | 0.41 | 99 | 1006.5 |
| 20260509191907 | 50 | 92 | 2.6 | 2.6 | 0.00 | 0.41 | 0.41 | 99 | 1006.5 |
| 20260509191403 | 50 | 204 | 0.9 | 0.9 | 0.00 | 0.41 | 0.41 | 99 | 1006.4 |
| 20260509190859 | 50 | 147 | 0.0 | 0.0 | 0.00 | 0.41 | 0.41 | 99 | 1006.4 |
| 20260509190356 | 51 | 180 | 0.9 | 0.9 | 0.00 | 0.41 | 0.41 | 99 | 1006.7 |
| 20260509185854 | 50 | 186 | 0.9 | 1.7 | 0.00 | 0.41 | 0.41 | 99 | 1006.6 |
| 20260509185350 | 51 | 151 | 0.9 | 0.9 | 0.00 | 0.41 | 0.41 | 99 | 1006.5 |
| 20260509184847 | 50 | 155 | 1.7 | 1.7 | 0.00 | 0.41 | 0.41 | 99 | 1006.6 |
| 20260509184344 | 50 | 136 | 0.0 | 0.0 | 0.00 | 0.41 | 0.41 | 99 | 1006.4 |
| 20260509183841 | 50 | 213 | 0.0 | 0.0 | 0.00 | 0.41 | 0.41 | 99 | 1006.5 |
| 20260509183336 | 50 | 186 | 0.0 | 0.0 | 0.00 | 0.41 | 0.41 | 99 | 1006.6 |
| 20260509182832 | 50 | 164 | 0.9 | 1.7 | 0.00 | 0.41 | 0.41 | 99 | 1006.8 |
| 20260509182330 | 50 | 177 | 0.9 | 0.9 | 0.00 | 0.41 | 0.41 | 99 | 1006.7 |
| 20260509181827 | 50 | 164 | 0.9 | 0.9 | 0.00 | 0.41 | 0.41 | 99 | 1006.6 |
| 20260509181324 | 50 | 176 | 0.0 | 0.0 | 0.00 | 0.41 | 0.41 | 99 | 1006.7 |
| 20260509180821 | 50 | 166 | 0.0 | 0.0 | 0.00 | 0.41 | 0.41 | 99 | 1006.7 |
| 20260509180317 | 50 | 166 | 0.0 | 0.0 | 0.00 | 0.41 | 0.41 | 99 | 1006.4 |
| 20260509175814 | 50 | 167 | 0.0 | 0.9 | 0.00 | 0.41 | 0.41 | 99 | 1006.2 |
| 20260509175311 | 50 | 166 | 0.0 | 0.0 | 0.00 | 0.41 | 0.41 | 99 | 1006.4 |
| 20260509174807 | 50 | 221 | 1.7 | 2.6 | 0.00 | 0.41 | 0.41 | 99 | 1006.5 |
| 20260509174302 | 50 | 194 | 0.0 | 0.9 | 0.00 | 0.41 | 0.41 | 99 | 1006.3 |
| 20260509173758 | 50 | 167 | 0.0 | 0.9 | 0.00 | 0.41 | 0.41 | 99 | 1006.4 |
| 20260509173254 | 50 | 150 | 0.0 | 0.9 | 0.00 | 0.41 | 0.41 | 99 | 1006.6 |
| 20260509172750 | 50 | 147 | 0.9 | 1.7 | 0.07 | 0.41 | 0.41 | 99 | 1006.4 |
| 20260509172247 | 50 | 177 | 0.9 | 1.7 | 0.07 | 0.41 | 0.41 | 99 | 1006.5 |
| 20260509171742 | 50 | 165 | 0.0 | 0.9 | 0.00 | 0.40 | 0.40 | 99 | 1006.4 |
| 20260509171239 | 50 | 144 | 0.9 | 0.9 | 0.00 | 0.40 | 0.40 | 99 | 1006.5 |
| 20260509170736 | 50 | 158 | 0.9 | 0.9 | 0.00 | 0.40 | 0.40 | 99 | 1006.7 |
| 20260509170232 | 51 | 214 | 1.7 | 2.6 | 0.00 | 0.40 | 0.40 | 99 | 1006.4 |
| 20260509165730 | 51 | 144 | 0.0 | 0.0 | 0.00 | 0.40 | 0.40 | 99 | 1006.7 |
| 20260509165225 | 51 | 156 | 1.7 | 1.7 | 0.00 | 0.40 | 0.40 | 99 | 1006.6 |
| 20260509164721 | 51 | 135 | 1.7 | 2.6 | 0.00 | 0.40 | 0.40 | 99 | 1006.5 |
| 20260509164217 | 51 | 302 | 0.9 | 0.9 | 0.00 | 0.40 | 0.40 | 99 | 1006.6 |
| 20260509163715 | 50 | 177 | 0.9 | 0.9 | 0.00 | 0.40 | 0.40 | 99 | 1006.5 |
| 20260509163212 | 51 | 183 | 1.7 | 1.7 | 0.00 | 0.40 | 0.40 | 99 | 1006.7 |
| 20260509162709 | 50 | 198 | 0.9 | 0.9 | 0.00 | 0.40 | 0.40 | 99 | 1006.6 |
| 20260509162204 | 50 | 199 | 0.0 | 0.0 | 0.00 | 0.40 | 0.40 | 99 | 1006.7 |
| 20260509161700 | 50 | 300 | 0.0 | 0.9 | 0.05 | 0.40 | 0.40 | 99 | 1006.6 |
| 20260509161156 | 50 | 203 | 0.0 | 0.9 | 0.05 | 0.40 | 0.40 | 99 | 1006.8 |
| 20260509160652 | 50 | 201 | 0.9 | 0.9 | 0.00 | 0.39 | 0.39 | 99 | 1006.9 |
| 20260509160147 | 50 | 153 | 0.0 | 0.0 | 0.00 | 0.39 | 0.39 | 99 | 1006.8 |
| 20260509155644 | 50 | 118 | 4.3 | 5.2 | 0.00 | 0.39 | 0.39 | 99 | 1007.1 |
| 20260509155140 | 49 | 141 | 0.9 | 1.7 | 0.00 | 0.39 | 0.39 | 99 | 1007.0 |
| 20260509154635 | 49 | 157 | 1.7 | 1.7 | 0.00 | 0.39 | 0.39 | 99 | 1007.4 |
| 20260509154133 | 49 | 207 | 0.9 | 0.9 | 0.00 | 0.39 | 0.39 | 99 | 1007.5 |
| 20260509153630 | 50 | 150 | 0.0 | 0.9 | 0.07 | 0.39 | 0.39 | 99 | 1007.1 |
| 20260509153127 | 49 | 209 | 0.9 | 2.6 | 0.07 | 0.39 | 0.39 | 99 | 1007.2 |
| 20260509152622 | 49 | 131 | 0.9 | 0.9 | 0.05 | 0.38 | 0.38 | 99 | 1007.4 |
| 20260509152120 | 49 | 149 | 1.7 | 2.6 | 0.05 | 0.38 | 0.38 | 99 | 1007.5 |
| 20260509151616 | 49 | 178 | 0.0 | 0.0 | 0.07 | 0.37 | 0.37 | 99 | 1007.6 |
| 20260509151114 | 49 | 163 | 0.0 | 0.9 | 0.07 | 0.37 | 0.37 | 99 | 1007.6 |
| 20260509150612 | 48 | 163 | 0.0 | 0.0 | 0.05 | 0.36 | 0.36 | 99 | 1007.8 |
| 20260509150110 | 48 | 163 | 0.0 | 0.9 | 0.12 | 0.36 | 0.36 | 99 | 1007.8 |
| 20260509145605 | 48 | 160 | 0.9 | 0.9 | 0.07 | 0.35 | 0.35 | 99 | 1007.8 |
| 20260509145100 | 48 | 161 | 0.9 | 0.9 | 0.05 | 0.34 | 0.34 | 99 | 1007.6 |
| 20260509144558 | 48 | 150 | 1.7 | 1.7 | 0.05 | 0.34 | 0.34 | 99 | 1007.7 |
| 20260509144055 | 48 | 186 | 0.0 | 0.0 | 0.07 | 0.33 | 0.33 | 99 | 1007.7 |
| 20260509143552 | 48 | 194 | 0.0 | 0.0 | 0.07 | 0.33 | 0.33 | 99 | 1007.9 |
| 20260509143050 | 48 | 141 | 0.9 | 0.9 | 0.07 | 0.33 | 0.33 | 99 | 1007.7 |
| 20260509142545 | 48 | 142 | 0.9 | 0.9 | 0.05 | 0.32 | 0.32 | 99 | 1007.9 |
| 20260509142041 | 47 | 141 | 0.9 | 0.9 | 0.00 | 0.31 | 0.31 | 99 | 1007.6 |
| 20260509141537 | 48 | 139 | 2.6 | 2.6 | 0.07 | 0.31 | 0.31 | 99 | 1007.7 |
| 20260509141034 | 48 | 161 | 0.9 | 1.7 | 0.07 | 0.31 | 0.31 | 99 | 1007.6 |
| 20260509140531 | 47 | 161 | 0.0 | 0.0 | 0.07 | 0.30 | 0.30 | 99 | 1007.8 |
| 20260509140029 | 47 | 160 | 0.0 | 0.0 | 0.12 | 0.30 | 0.30 | 99 | 1007.7 |
| 20260509135526 | 47 | 160 | 0.0 | 0.9 | 0.05 | 0.29 | 0.29 | 99 | 1007.8 |
| 20260509135023 | 47 | 160 | 0.0 | 0.0 | 0.12 | 0.29 | 0.29 | 99 | 1008.0 |
| 20260509134520 | 47 | 160 | 0.9 | 1.7 | 0.07 | 0.28 | 0.28 | 99 | 1007.8 |
| 20260509134018 | 47 | 164 | 0.0 | 0.0 | 0.05 | 0.27 | 0.27 | 99 | 1007.9 |
| 20260509133514 | 47 | 164 | 0.0 | 0.0 | 0.05 | 0.27 | 0.27 | 99 | 1007.8 |
| 20260509133012 | 47 | 164 | 0.0 | 0.0 | 0.07 | 0.26 | 0.26 | 99 | 1008.0 |
| 20260509132511 | 47 | 164 | 0.0 | 0.0 | 0.07 | 0.26 | 0.26 | 99 | 1007.9 |
| 20260509132008 | 47 | 164 | 0.0 | 0.0 | 0.05 | 0.25 | 0.25 | 99 | 1008.0 |
| 20260509131504 | 46 | 164 | 0.0 | 0.0 | 0.12 | 0.25 | 0.25 | 99 | 1008.2 |
| 20260509131001 | 46 | 164 | 0.0 | 0.0 | 0.12 | 0.24 | 0.24 | 99 | 1008.0 |
| 20260509130456 | 46 | 164 | 0.0 | 0.0 | 0.05 | 0.23 | 0.23 | 99 | 1008.2 |
| 20260509125954 | 46 | 164 | 0.0 | 0.0 | 0.05 | 0.23 | 0.23 | 99 | 1007.9 |
| 20260509125450 | 46 | 164 | 0.0 | 0.0 | 0.07 | 0.22 | 0.22 | 99 | 1007.9 |
| 20260509124946 | 45 | 164 | 0.0 | 0.0 | 0.07 | 0.22 | 0.22 | 99 | 1008.5 |
| 20260509124443 | 45 | 164 | 0.0 | 0.0 | 0.00 | 0.21 | 0.21 | 99 | 1008.2 |
| 20260509123940 | 45 | 164 | 0.0 | 0.0 | 0.00 | 0.21 | 0.21 | 99 | 1007.9 |
| 20260509123438 | 44 | 164 | 0.0 | 0.0 | 0.05 | 0.21 | 0.21 | 99 | 1008.2 |
| 20260509122934 | 44 | 164 | 0.0 | 0.0 | 0.05 | 0.21 | 0.21 | 99 | 1007.9 |
| 20260509122431 | 44 | 164 | 0.0 | 0.0 | 0.07 | 0.20 | 0.20 | 99 | 1008.2 |
| 20260509121927 | 44 | 164 | 0.0 | 0.0 | 0.12 | 0.20 | 0.20 | 99 | 1008.2 |
| 20260509121425 | 43 | 164 | 0.0 | 0.0 | 0.12 | 0.19 | 0.19 | 99 | 1007.9 |
| 20260509120923 | 43 | 164 | 0.0 | 0.0 | 0.14 | 0.18 | 0.18 | 99 | 1008.3 |
| 20260509120420 | 43 | 164 | 0.0 | 0.0 | 0.12 | 0.17 | 0.17 | 99 | 1008.2 |
| 20260509115918 | 43 | 164 | 0.0 | 0.0 | 0.12 | 0.16 | 0.16 | 99 | 1008.2 |
| 20260509115415 | 43 | 164 | 0.0 | 0.0 | 0.12 | 0.15 | 0.15 | 99 | 1008.0 |
| 20260509114912 | 42 | 164 | 0.0 | 0.0 | 0.12 | 0.14 | 0.14 | 99 | 1008.3 |
| 20260509114411 | 42 | 164 | 0.0 | 0.9 | 0.12 | 0.13 | 0.13 | 99 | 1008.3 |
| 20260509113910 | 42 | 164 | 0.0 | 0.0 | 0.17 | 0.12 | 0.12 | 99 | 1008.0 |
| 20260509113407 | 42 | 164 | 0.0 | 0.0 | 0.19 | 0.11 | 0.11 | 99 | 1008.0 |
| 20260509112903 | 42 | 164 | 0.0 | 0.0 | 0.12 | 0.10 | 0.10 | 99 | 1008.4 |
| 20260509112401 | 42 | 164 | 0.0 | 0.0 | 0.05 | 0.08 | 0.08 | 99 | 1008.3 |
| 20260509111858 | 42 | 164 | 0.0 | 0.0 | 0.05 | 0.08 | 0.08 | 99 | 1008.4 |
| 20260509111354 | 41 | 164 | 0.0 | 0.0 | 0.00 | 0.07 | 0.07 | 99 | 1008.2 |
| 20260509110852 | 41 | 164 | 0.0 | 0.0 | 0.00 | 0.07 | 0.07 | 99 | 1008.3 |
| 20260509110348 | 41 | 164 | 0.0 | 0.0 | 0.07 | 0.07 | 0.07 | 99 | 1008.2 |
| 20260509105847 | 41 | 164 | 0.0 | 0.0 | 0.05 | 0.06 | 0.06 | 99 | 1008.2 |
| 20260509105345 | 41 | 164 | 0.0 | 0.0 | 0.05 | 0.06 | 0.06 | 99 | 1008.2 |
| 20260509104841 | 41 | 164 | 0.0 | 0.0 | 0.00 | 0.05 | 0.05 | 99 | 1008.4 |
| 20260509104337 | 41 | 164 | 0.0 | 0.0 | 0.00 | 0.05 | 0.05 | 99 | 1008.2 |
| 20260509103835 | 40 | 164 | 0.0 | 0.0 | 0.00 | 0.05 | 0.05 | 99 | 1008.2 |
| 20260509103332 | 40 | 164 | 0.0 | 0.0 | 0.00 | 0.05 | 0.05 | 99 | 1007.7 |
| 20260509102831 | 40 | 164 | 0.0 | 0.0 | 0.00 | 0.05 | 0.05 | 99 | 1008.0 |
| 20260509102328 | 40 | 164 | 0.0 | 0.0 | 0.07 | 0.05 | 0.05 | 99 | 1007.9 |
| 20260509101824 | 40 | 164 | 0.0 | 0.0 | 0.07 | 0.05 | 0.05 | 99 | 1007.9 |
| 20260509101320 | 40 | 164 | 0.0 | 0.0 | 0.00 | 0.04 | 0.04 | 99 | 1008.0 |
| 20260509100818 | 40 | 164 | 0.0 | 0.0 | 0.00 | 0.04 | 0.04 | 99 | 1007.9 |
| 20260509100315 | 40 | 164 | 0.0 | 0.0 | 0.00 | 0.04 | 0.04 | 99 | 1007.9 |
| 20260509095812 | 40 | 164 | 0.0 | 0.0 | 0.00 | 0.04 | 0.04 | 99 | 1007.7 |
| 20260509095309 | 40 | 164 | 0.0 | 0.0 | 0.00 | 0.04 | 0.04 | 99 | 1007.7 |
| 20260509094806 | 40 | 164 | 0.0 | 0.0 | 0.00 | 0.04 | 0.04 | 99 | 1007.9 |
| 20260509094302 | 40 | 164 | 0.0 | 0.0 | 0.00 | 0.04 | 0.04 | 99 | 1007.8 |
| 20260509093800 | 40 | 164 | 0.0 | 0.0 | 0.00 | 0.04 | 0.04 | 99 | 1007.8 |
| 20260509093257 | 40 | 164 | 0.0 | 0.0 | 0.00 | 0.04 | 0.04 | 99 | 1008.0 |
| 20260509092756 | 40 | 164 | 0.0 | 0.0 | 0.00 | 0.04 | 0.04 | 99 | 1008.3 |
| 20260509092253 | 40 | 164 | 0.0 | 0.0 | 0.00 | 0.04 | 0.04 | 99 | 1007.9 |
| 20260509091751 | 40 | 164 | 0.0 | 0.0 | 0.00 | 0.04 | 0.04 | 99 | 1008.0 |
| 20260509091247 | 40 | 164 | 0.0 | 0.0 | 0.00 | 0.04 | 0.04 | 99 | 1007.9 |
| 20260509090745 | 40 | 164 | 0.0 | 0.0 | 0.00 | 0.04 | 0.04 | 99 | 1008.2 |
| 20260509090242 | 40 | 164 | 0.0 | 0.0 | 0.00 | 0.04 | 0.04 | 99 | 1008.5 |
| 20260509085740 | 39 | 164 | 0.0 | 0.0 | 0.00 | 0.04 | 0.04 | 99 | 1008.4 |
| 20260509085237 | 40 | 164 | 0.0 | 0.0 | 0.00 | 0.04 | 0.04 | 99 | 1008.6 |
| 20260509084733 | 40 | 164 | 0.0 | 0.0 | 0.00 | 0.04 | 0.04 | 99 | 1008.3 |
| 20260509084230 | 39 | 164 | 0.0 | 0.0 | 0.07 | 0.04 | 0.04 | 99 | 1008.6 |
| 20260509083728 | 39 | 164 | 0.0 | 0.0 | 0.07 | 0.04 | 0.04 | 99 | 1008.4 |
| 20260509083225 | 39 | 164 | 0.0 | 0.0 | 0.00 | 0.03 | 0.03 | 99 | 1008.5 |
| 20260509082721 | 40 | 164 | 0.0 | 0.0 | 0.00 | 0.03 | 0.03 | 99 | 1008.6 |
| 20260509082218 | 40 | 164 | 0.0 | 0.0 | 0.00 | 0.03 | 0.03 | 99 | 1008.7 |
| 20260509081714 | 39 | 164 | 0.0 | 0.0 | 0.05 | 0.03 | 0.03 | 99 | 1008.8 |
| 20260509081212 | 39 | 164 | 0.0 | 0.0 | 0.05 | 0.03 | 0.03 | 99 | 1008.7 |
| 20260509080710 | 39 | 164 | 0.0 | 0.0 | 0.00 | 0.02 | 0.02 | 99 | 1008.8 |
| 20260509080208 | 39 | 164 | 0.0 | 0.0 | 0.07 | 0.02 | 0.02 | 99 | 1008.7 |
| 20260509075706 | 39 | 164 | 0.0 | 0.0 | 0.07 | 0.02 | 0.02 | 99 | 1008.5 |
| 20260509075203 | 39 | 164 | 0.0 | 0.0 | 0.00 | 0.01 | 0.01 | 99 | 1008.7 |
| 20260509074700 | 39 | 164 | 0.0 | 0.0 | 0.00 | 0.01 | 0.01 | 99 | 1008.9 |
| 20260509074156 | 39 | 164 | 0.0 | 0.0 | 0.00 | 0.01 | 0.01 | 99 | 1008.6 |
| 20260509073653 | 39 | 164 | 0.0 | 0.0 | 0.00 | 0.01 | 0.01 | 99 | 1008.6 |
| 20260509073149 | 39 | 164 | 0.0 | 0.0 | 0.00 | 0.01 | 0.01 | 99 | 1008.5 |